Location: Izdebno
(52.6670°N, 16.2170°E)
Time: 22:35:06
(UTC+02:00)

Vanguard 2 Rocket - Pass Details

Date: 23 February 2024
Orbit: 555 x 3307 km, 32.9° (Epoch: 21 April)

Event Time Altitude Azimuth Distance (km) Brightness Sun altitude
Rises 14:28:14 0° 213° (SSW) 4,580 12.1 20.7°
Reaches altitude 10° 14:31:37 10° 200° (SSW) 3,984 11.8 20.4°
Maximum altitude 14:40:03 25° 150° (SSE) 3,762 10.4 19.6°
Drops below altitude 10° 14:51:54 10° 105° (ESE) 5,754 10.8 18.4°
Sets 14:58:11 0° 95° (E) 7,081 11.1 17.7°
